Weather reports worldwide

Advertisment
Leipzig, Germany (10471): temperature & dewpoint: 11.06.2019 20:00:00 - 17.06.2019 20:00:00 (CEST)Leipzig, Germany (10471): temperature 5cm & temperature -5cm: 11.06.2019 20:00:00 - 17.06.2019 20:00:00 (CEST)Leipzig, Germany (10471): temperature -20cm & temperature -100cm: 11.06.2019 20:00:00 - 17.06.2019 20:00:00 (CEST)Leipzig, Germany (10471): wind speed & gusts: 11.06.2019 20:00:00 - 17.06.2019 20:00:00 (CEST)Leipzig, Germany (10471): wind direction: 11.06.2019 20:00:00 - 17.06.2019 20:00:00 (CEST)Leipzig, Germany (10471): reduced air pressure: 11.06.2019 20:00:00 - 17.06.2019 20:00:00 (CEST)Leipzig, Germany (10471): visibility: 11.06.2019 20:00:00 - 17.06.2019 20:00:00 (CEST)Leipzig, Germany (10471): sunshine duration: 11.06.2019 20:00:00 - 17.06.2019 20:00:00 (CEST)Leipzig, Germany (10471): precipitation: 11.06.2019 20:00:00 - 17.06.2019 20:00:00 (CEST)
Date & Time tt [°C] td [°C] tt 5cm [°C] tt -5cm [°C] tt -20cm [°C] tt -100cm [°C] ff [km/h] ff [kn] fx [km/h] fx [kn] dd ppp [hPa] vv [km] sd [min] rr [mm]
17.06.2019 20:00:00 - - - - - - - - - - - - - - -
17.06.2019 19:00:00 26,1 11,4 28,5 30,6 25,3 18,2 6 4 19 10 SE 1018,8 52 60 0,0
17.06.2019 18:00:00 26,2 10,6 29,3 32,0 25,1 18,2 9 5 20 11 E 1019,2 48 60 0,0
17.06.2019 17:00:00 26,1 10,9 30,8 33,2 24,7 18,2 8 4 20 11 E 1019,7 42 60 0,0
17.06.2019 16:00:00 26,0 10,7 31,2 33,7 24,2 18,2 8 5 21 11 SE 1020,4 38 60 0,0
17.06.2019 15:00:00 24,9 12,0 31,7 33,6 23,6 18,2 6 4 18 10 SE 1020,8 25 51 0,0
17.06.2019 14:00:00 24,6 12,9 34,2 33,7 22,8 18,2 7 4 18 10 NNE 1021,0 19 60 0,0
17.06.2019 13:00:00 23,9 12,2 31,0 31,9 22,0 18,2 7 4 20 11 ESE 1021,6 40 60 0,0
17.06.2019 12:00:00 23,1 11,6 30,8 29,8 21,3 18,2 5 3 14 7 NNE 1021,7 45 60 0,0
17.06.2019 11:00:00 22,4 12,7 27,6 27,2 20,7 18,2 5 3 13 7 ENE 1022,1 31 59 0,0
17.06.2019 10:00:00 22,3 15,0 25,5 26,2 20,1 18,2 3 2 11 6 S 1022,3 25 57 0,0
17.06.2019 09:00:00 - - - - - - - - - - - - - - -
17.06.2019 08:00:00 18,5 - - - - - - - - - - - 12 - -
17.06.2019 07:00:00 - - - - - - - - - - - - - - -
17.06.2019 06:00:00 - - - - - - - - - - - - - - -
17.06.2019 05:00:00 - - - - - - - - - - - - - - -
17.06.2019 04:00:00 - - - - - - - - - - - - - - -
17.06.2019 03:00:00 - - - - - - - - - - - - - - -
17.06.2019 02:00:00 - - - - - - - - - - - - - - -
17.06.2019 01:00:00 - - - - - - - - - - - - - - -
17.06.2019 00:00:00 - - - - - - - - - - - - - - -
16.06.2019 23:00:00 - - - - - - - - - - - - - - -
16.06.2019 22:00:00 - - - - - - - - - - - - - - -
16.06.2019 21:00:00 - - - - - - - - - - - - - - -
16.06.2019 20:00:00 - - - - - - - - - - - - - - -
16.06.2019 19:00:00 - - - - - - - - - - - - - - -
16.06.2019 18:00:00 - - - - - - - - - - - - - - -
16.06.2019 17:00:00 - - - - - - - - - - - - - - -
16.06.2019 16:00:00 - - - - - - - - - - - - - - -
16.06.2019 15:00:00 - - - - - - - - - - - - - - -
16.06.2019 14:00:00 - - - - - - - - - - - - - - -
16.06.2019 13:00:00 - - - - - - - - - - - - - - -
16.06.2019 12:00:00 - - - - - - - - - - - - - - -
16.06.2019 11:00:00 - - - - - - - - - - - - - - -
16.06.2019 10:00:00 - - - - - - - - - - - - - - -
16.06.2019 09:00:00 - - - - - - - - - - - - - - -
16.06.2019 08:00:00 - - - - - - - - - - - - - - -
16.06.2019 07:00:00 - - - - - - - - - - - - - - -
16.06.2019 06:00:00 - - - - - - - - - - - - - - -
16.06.2019 05:00:00 - - - - - - - - - - - - - - -
16.06.2019 04:00:00 - - - - - - - - - - - - - - -
16.06.2019 03:00:00 - - - - - - - - - - - - - - -
16.06.2019 02:00:00 - - - - - - - - - - - - - - -
16.06.2019 01:00:00 - - - - - - - - - - - - - - -
16.06.2019 00:00:00 - - - - - - - - - - - - - - -
15.06.2019 23:00:00 - - - - - - - - - - - - - - -
15.06.2019 22:00:00 22,3 15,2 21,2 24,7 26,1 17,8 10 6 32 18 NW 1014,1 45 0 0,0
15.06.2019 21:00:00 24,4 13,5 23,4 26,4 26,6 17,8 10 5 32 17 W 1013,0 70 9 0,0
15.06.2019 20:00:00 25,5 13,0 25,2 29,0 26,8 17,8 14 8 35 19 W 1012,3 70 43 0,0
15.06.2019 19:00:00 26,8 12,4 27,6 31,4 26,8 17,8 13 7 36 20 W 1011,7 70 60 0,0
15.06.2019 18:00:00 27,4 12,8 29,3 33,2 26,6 17,8 16 9 35 19 W 1011,5 52 60 0,0
15.06.2019 17:00:00 27,5 12,9 30,0 34,5 26,2 17,8 21 11 43 23 W 1011,6 47 60 0,0
15.06.2019 16:00:00 27,9 14,0 30,6 35,3 25,6 17,8 18 10 41 22 W 1011,3 42 52 0,0
15.06.2019 15:00:00 27,4 15,0 28,8 34,7 25,0 17,8 17 9 38 20 WSW 1010,8 54 44 0,0
15.06.2019 14:00:00 29,1 16,1 33,2 35,2 24,1 17,8 14 8 36 19 W 1010,1 46 56 0,0
15.06.2019 13:00:00 29,7 17,0 33,4 34,4 23,3 17,8 13 7 39 21 WSW 1009,1 26 49 0,0
15.06.2019 12:00:00 29,7 16,6 32,8 32,8 22,5 17,8 14 8 32 18 SW 1008,4 30 60 0,0
15.06.2019 11:00:00 29,3 18,3 32,3 30,6 21,8 17,8 11 6 25 13 S 1008,3 19 60 0,0
15.06.2019 10:00:00 26,0 20,2 28,4 26,9 21,3 17,8 9 5 16 9 SSE 1008,4 17 58 0,0
15.06.2019 09:00:00 24,2 20,1 26,6 23,4 21,1 17,8 6 4 19 11 SE 1008,3 13 18 0,0
15.06.2019 08:00:00 22,3 19,2 22,5 21,4 21,0 17,8 6 3 20 11 E 1008,0 13 1 0,0
15.06.2019 07:00:00 21,7 18,4 21,7 20,5 21,1 17,7 7 4 19 11 E 1008,3 16 0 0,0
15.06.2019 06:00:00 21,5 17,9 20,8 19,9 21,3 17,7 7 4 22 12 E 1008,4 17 0 0,0
15.06.2019 05:00:00 22,4 18,2 21,3 19,9 21,5 17,7 9 5 29 16 E 1008,7 19 0 0,0
15.06.2019 04:00:00 22,8 18,8 21,8 19,9 21,7 17,7 10 6 27 14 ESE 1009,1 19 0 0,0
15.06.2019 03:00:00 21,6 16,9 18,5 20,1 21,9 17,7 11 6 24 13 ENE 1009,4 14 0 0,1
15.06.2019 02:00:00 22,4 15,9 21,6 20,4 22,2 17,7 5 3 15 8 E 1011,4 37 0 0,0
15.06.2019 01:00:00 22,5 16,5 21,1 20,6 22,5 17,7 4 2 16 8 ENE 1012,2 37 0 0,0
15.06.2019 00:00:00 22,9 17,1 21,8 21,2 22,8 17,7 5 3 14 8 E 1013,0 37 0 0,0
14.06.2019 23:00:00 23,6 17,1 22,5 21,8 23,1 17,7 4 2 12 7 ENE 1013,6 45 0 0,0
14.06.2019 22:00:00 24,0 16,5 22,7 22,6 23,5 17,7 4 2 10 5 E 1014,0 50 0 0,0
14.06.2019 21:00:00 25,0 15,2 23,8 23,6 23,8 17,7 4 2 12 6 E 1013,7 60 0 0,0
14.06.2019 20:00:00 26,0 14,4 24,8 24,9 24,0 17,7 5 3 15 8 E 1013,9 70 0 0,0
14.06.2019 19:00:00 27,2 15,0 26,8 27,0 24,0 17,7 6 4 19 10 E 1014,4 70 18 0,0
14.06.2019 18:00:00 28,4 14,7 29,3 29,2 23,8 17,7 8 5 21 11 E 1014,5 64 35 0,0
14.06.2019 17:00:00 28,4 15,2 29,6 29,3 23,5 17,7 8 5 22 12 E 1015,3 67 43 0,0
14.06.2019 16:00:00 28,6 15,0 31,2 30,0 23,2 17,8 10 5 22 12 E 1015,8 40 48 0,0
14.06.2019 15:00:00 27,4 14,3 28,6 28,0 22,9 17,8 6 3 22 12 E 1016,5 70 16 0,0
14.06.2019 14:00:00 27,7 11,1 29,7 29,7 22,3 17,7 13 7 26 14 SE 1017,0 60 60 0,0
14.06.2019 13:00:00 27,6 11,6 30,2 29,6 21,6 17,7 10 6 24 13 ESE 1017,2 46 60 0,0
14.06.2019 12:00:00 26,8 11,1 29,2 28,7 20,9 17,7 8 5 22 12 ESE 1018,0 51 60 0,0
14.06.2019 11:00:00 25,8 12,9 28,5 27,6 20,1 17,7 9 5 21 11 ESE 1017,9 50 60 0,0
14.06.2019 10:00:00 23,2 15,5 25,0 25,4 19,5 17,7 10 5 19 10 SE 1018,4 36 60 0,0
14.06.2019 09:00:00 21,2 15,6 23,5 22,7 19,1 17,7 8 5 15 8 ESE 1018,3 42 60 0,0
14.06.2019 08:00:00 19,7 14,7 21,5 19,3 19,0 17,7 4 2 10 6 SSE 1018,4 37 60 0,0
14.06.2019 07:00:00 16,4 13,5 14,2 15,3 19,2 17,7 5 3 11 6 S 1018,4 38 6 0,0
14.06.2019 06:00:00 13,8 13,1 12,2 14,8 19,6 17,7 6 3 9 5 SSE 1018,5 30 0 0,0
14.06.2019 05:00:00 12,1 11,8 10,2 15,0 20,0 17,7 3 2 6 4 S 1018,0 23 0 0,0
14.06.2019 04:00:00 12,7 12,2 10,9 15,5 20,4 17,7 2 1 8 4 SW 1017,5 37 0 0,0
14.06.2019 03:00:00 13,1 12,4 11,5 16,2 20,8 17,7 3 1 7 4 SE 1017,4 36 0 0,0
14.06.2019 02:00:00 14,3 13,0 12,7 17,0 21,2 17,7 0 0 4 2 N 1017,2 25 0 0,0
14.06.2019 01:00:00 15,2 13,8 13,4 17,7 21,6 17,7 3 1 5 3 WNW 1017,3 54 0 0,0
14.06.2019 00:00:00 16,8 14,1 14,4 18,4 22,1 17,7 0 0 13 7 N 1016,6 67 0 0,0
13.06.2019 23:00:00 17,4 14,0 15,6 19,0 22,6 17,7 3 2 11 6 SE 1015,6 70 0 0,0
13.06.2019 22:00:00 17,5 14,1 15,2 20,0 23,0 17,7 3 2 7 4 ESE 1015,3 70 0 0,0
13.06.2019 21:00:00 21,1 12,7 17,9 21,5 23,4 17,7 3 2 11 6 SE 1014,3 70 12 0,0
13.06.2019 20:00:00 22,8 12,5 22,2 23,6 23,7 17,7 8 4 16 9 ESE 1013,6 70 43 0,0
13.06.2019 19:00:00 23,4 12,0 23,6 25,4 23,8 17,7 6 4 16 9 SE 1013,8 70 60 0,0
13.06.2019 18:00:00 23,2 12,1 24,1 26,7 23,7 17,7 9 5 20 11 SE 1013,9 70 60 0,0
13.06.2019 17:00:00 23,6 12,5 25,7 27,6 23,7 17,7 9 5 18 10 SE 1014,1 33 22 0,0
13.06.2019 16:00:00 24,0 12,8 27,1 28,7 23,4 17,7 10 5 23 13 S 1014,3 56 41 0,0
13.06.2019 15:00:00 23,4 11,0 26,2 29,4 23,0 17,7 9 5 16 9 S 1014,4 54 29 0,0
13.06.2019 14:00:00 24,0 10,7 27,9 29,9 22,4 17,7 4 2 17 9 ESE 1014,6 59 56 0,0
13.06.2019 13:00:00 22,7 10,4 26,5 29,9 21,6 17,7 5 3 18 10 S 1014,8 43 60 0,0
13.06.2019 12:00:00 21,7 11,9 25,7 28,8 20,9 17,7 5 3 16 8 SE 1015,0 40 60 0,0
13.06.2019 11:00:00 21,3 11,8 25,8 26,8 20,2 17,7 3 2 11 6 WNW 1015,0 70 59 0,0
13.06.2019 10:00:00 20,2 12,5 22,6 24,4 19,7 17,7 4 2 10 5 SSW 1015,3 58 50 0,0
13.06.2019 09:00:00 18,3 13,9 19,7 20,8 19,5 17,7 6 3 12 7 SW 1015,6 70 45 0,0
13.06.2019 08:00:00 16,4 14,8 17,1 18,0 19,5 17,7 4 2 12 7 S 1015,4 34 8 0,1
13.06.2019 07:00:00 15,5 14,4 15,3 17,0 19,7 17,7 6 3 11 6 SSE 1015,5 36 0 0,0
13.06.2019 06:00:00 14,8 14,0 14,5 16,7 19,9 17,7 4 2 7 4 SE 1014,1 45 0 0,0
13.06.2019 05:00:00 15,1 13,4 14,4 16,8 20,1 17,6 0 0 10 5 N 1013,7 45 0 0,0
13.06.2019 04:00:00 15,6 13,2 14,9 16,9 20,4 17,6 4 2 20 11 W 1014,0 70 0 0,1
13.06.2019 03:00:00 15,6 13,5 14,9 17,2 20,7 17,6 5 3 15 8 WSW 1014,0 70 0 0,0
13.06.2019 02:00:00 15,3 13,9 14,6 17,3 21,0 17,6 3 1 13 7 WSW 1013,8 62 0 0,0
13.06.2019 01:00:00 15,5 13,4 15,0 17,4 21,4 17,6 9 5 22 12 WSW 1014,3 44 0 0,0
13.06.2019 00:00:00 15,3 13,4 14,5 17,7 21,9 17,6 9 5 20 11 WSW 1013,6 55 0 0,0
12.06.2019 23:00:00 15,9 12,6 15,1 18,1 22,4 17,6 12 6 27 15 W 1012,7 56 0 0,0
12.06.2019 22:00:00 16,3 12,9 15,9 19,1 22,9 17,6 12 7 27 15 WSW 1011,6 70 0 0,0
12.06.2019 21:00:00 17,3 14,4 17,1 20,6 23,3 17,6 10 5 24 13 WSW 1010,9 70 0 0,0
12.06.2019 20:00:00 19,4 16,3 19,3 22,0 23,6 17,6 12 6 26 14 W 1009,6 43 7 0,0
12.06.2019 19:00:00 19,4 16,5 19,5 22,4 24,1 17,6 10 5 25 14 W 1009,7 53 3 0,0
12.06.2019 18:00:00 19,3 16,3 19,7 23,0 24,6 17,6 11 6 53 29 WNW 1009,6 41 2 0,6
12.06.2019 17:00:00 19,3 19,1 19,0 23,5 25,0 17,6 18 10 45 24 WSW 1008,9 0,9 0 2,2
12.06.2019 16:00:00 26,3 19,8 26,0 28,5 25,0 17,6 9 5 38 20 W 1005,3 15 6 0,0
12.06.2019 15:00:00 28,5 19,7 33,0 33,2 24,4 17,5 5 3 16 8 N 1004,4 16 60 0,0
12.06.2019 14:00:00 27,2 20,1 30,9 32,2 23,7 17,5 9 5 20 11 N 1005,3 15 60 0,0
12.06.2019 13:00:00 26,2 19,3 30,7 31,8 23,0 17,5 6 4 17 9 ENE 1005,7 13 60 0,0
12.06.2019 12:00:00 24,8 19,0 28,7 30,6 22,3 17,5 6 4 17 9 E 1006,0 17 59 0,0
12.06.2019 11:00:00 22,9 18,2 27,3 28,9 21,6 17,5 6 4 13 7 ENE 1006,4 21 60 0,0
12.06.2019 10:00:00 21,6 17,5 25,6 26,4 21,2 17,5 4 2 13 7 N 1007,0 21 45 0,0
12.06.2019 09:00:00 20,3 17,6 21,6 23,1 20,9 17,5 3 1 12 6 ESE 1007,9 19 13 0,0
12.06.2019 08:00:00 19,6 17,5 20,4 21,4 20,9 17,5 4 2 10 6 NE 1007,7 14 14 0,0
12.06.2019 07:00:00 18,4 17,5 18,4 19,9 21,0 17,5 2 1 7 4 ESE 1008,4 8 0 0,0
12.06.2019 06:00:00 17,8 17,6 17,6 19,2 21,2 17,5 3 1 12 7 S 1008,9 6 0 0,0
12.06.2019 05:00:00 17,6 17,2 17,3 19,0 21,4 17,5 6 4 19 10 NNE 1008,6 7 0 0,0
12.06.2019 04:00:00 17,4 17,0 17,0 18,9 21,7 17,5 9 5 18 10 N 1008,8 7 0 0,0
12.06.2019 03:00:00 17,5 17,0 16,9 19,0 22,0 17,5 9 5 24 13 NW 1009,0 10 0 0,0
12.06.2019 02:00:00 18,0 17,5 17,5 19,7 22,4 17,4 11 6 21 11 NNW 1009,2 12 0 0,0
12.06.2019 01:00:00 19,2 18,3 18,5 20,3 22,7 17,4 7 4 51 28 NNW 1008,3 8 0 0,0
12.06.2019 00:00:00 19,3 18,5 18,5 20,7 23,1 17,4 6 4 31 17 NE 1006,7 13 0 1,0
11.06.2019 23:00:00 19,6 19,2 19,2 21,2 23,5 17,4 8 5 36 19 NNW 1008,3 3,6 0 10,7
11.06.2019 22:00:00 20,5 17,8 19,2 23,0 24,0 17,4 11 6 31 17 N 1008,3 1,0 0 3,4
11.06.2019 21:00:00 25,9 16,5 25,0 24,5 24,2 17,4 8 4 14 8 N 1007,8 37 0 0,0
11.06.2019 20:00:00 26,4 16,1 25,7 25,8 24,3 17,4 10 5 18 10 N 1008,2 43 39 0,0

tt = temperature
td = dewpoint
tt 5cm = temperature 5cm
tt -5cm = temperature -5cm
tt -20cm = temperature -20cm
tt -100cm = temperature -100cm
ff = wind speed
fx = gusts
dd = wind direction
ppp = reduced air pressure
vv = visibility
sd = sunshine duration
rr = precipitation

Next stations